Regional Weather Roundup
Issued by NWS

Home | Current Version | Previous Version | Text Only | Print | Product List | Glossary Off
Versions: 1 2 3 4 5 6 7 8 9 10 11 12 13 14 15 16 17 18 19 20 21 22 23 24 25 26 27 28 29 30 31 32 33 34 35 36 37 38 39 40 41 42 43 44 45 46 47 48 49 50

000
ASUS45 KABQ 271310
RWRNM
WEATHER ROUNDUP FOR NEW MEXICO
NATIONAL WEATHER SERVICE ALBUQUERQUE NM
600 AM MST FRI FEB 27 2015

NOTE: "FAIR" MEANS FEW OR NO CLOUDS BELOW 12,000 FEET AGL WITH NO
       SIGNIFICANT WEATHER OR OBSTRUCTIONS TO VISION.

      THIS PRODUCT IS RELEASED AS TWO VERSIONS.  ONE VERSION NEAR
      THE TOP OF THE HOUR CONTAINING PRELIMINARY DATA FROM ALBUQUERQUE
      AND OTHER STATIONS.  A FINAL VERSION WITH ADDITIONAL DATA IS
      ISSUED ABOUT 10 MINUTES AFTER THE HOUR.

NMZ501-503-504-510>518-271400-
NORTHWEST PLATEAU/NORTHCENTRAL MOUNTAINS

CITY           SKY/WX    TMP DP  RH WIND       PRES   REMARKS
FARMINGTON     CLOUDY    30  27  88 CALM      29.84F
LOS ALAMOS     FLURRIES  13  10  89 S14G20    29.92S WCI  -2
SANTA FE       CLOUDY    17   8  67 SE16      29.96S WCI   2
TAOS           CLOUDY    16   9  73 W10       29.90S WCI   3
ANGEL FIRE     LGT SNOW   8   3  82 S14       29.85S WCI  -9

$$
NMZ402-403-502-505>509-271400-
WESTCENTRAL MOUNTAINS/SOUTHWEST MOUNTAINS

CITY           SKY/WX    TMP DP  RH WIND       PRES   REMARKS
GALLUP         CLOUDY    28  25  88 CALM      29.85R
GRANTS         CLOUDY    23  23  99 SE14G21   29.90S FOG     WCI  11
SILVER CITY    CLEAR     25  19  80 CALM      29.96R

$$
NMZ407-409-411-412-271400-
SOUTHERN DESERTS

CITY           SKY/WX    TMP DP  RH WIND       PRES   REMARKS
LORDSBURG      FAIR      30  23  74 S15       29.92R WCI  19
DEMING         CLEAR     26  21  81 MISG      29.97R
LAS CRUCES     CLEAR     29  23  79 SE12      29.99R WCI  19
HOLLOMAN AFB   CLOUDY    32  26  80 N6        30.00R WCI  26
ALAMOGORDO     CLOUDY    32  30  93 MISG      30.02R
T OR C         CLOUDY    33  32  96 NE5       29.95S WCI  29

$$
NMZ519>523-271400-
CENTRAL VALLEYS/CENTRAL HIGHLANDS

CITY           SKY/WX    TMP DP  RH WIND       PRES   REMARKS
ALBUQUERQUE    CLOUDY    23  16  74 E18       29.96F WCI   9
DOUBLE EAGLE   CLOUDY    19  12  73 N8        29.96R WCI   9
MORIARTY ARPT  CLOUDY    15  10  80 SE9       30.02S WCI   4
CLINES CORNERS FLURRIES  10   7  87 E12       29.94R WCI  -5
BELEN          LGT SNOW  24  24  97 CALM      29.98R
SOCORRO          N/A     29  27  92 CALM      29.97S

$$
NMZ524>526-539-540-271400-
SOUTHCENTRAL MOUNTAINS

CITY           SKY/WX    TMP DP  RH WIND       PRES   REMARKS
RUIDOSO        CLOUDY    14  10  85 SE10      30.00R FOG     WCI   1

$$
NMZ527>531-271400-
NORTHEAST HIGHLANDS/NORTHEAST PLAINS

CITY           SKY/WX    TMP DP  RH WIND       PRES   REMARKS
LAS VEGAS      LGT SNOW   9   6  88 S16       29.97S FOG     WCI  -8
RATON          LGT SNOW   9   5  84 S14       30.00S FOG     WCI  -7
CLAYTON        CLOUDY    10   7  87 SE15      30.13F WCI  -7

$$
NMZ532>537-271400-
EASTCENTRAL PLAINS

CITY           SKY/WX    TMP DP  RH WIND       PRES   REMARKS
TUCUMCARI      FLURRIES  16  12  84 E10       30.19R WCI   4
CANNON AFB     LGT SNOW  13  10  89 SE13      30.18S FOG     WCI  -1
CLOVIS AIRPORT CLOUDY    12  10  92 E15       30.18F WCI  -4

$$
NMZ028-029-538-271400-
SOUTHEAST PLAINS

CITY           SKY/WX    TMP DP  RH WIND       PRES   REMARKS
ROSWELL        CLOUDY    20  17  88 E8        30.18R WCI  10
ARTESIA        CLOUDY    21  21 100 SE12      30.20R WCI   9
CARLSBAD       CLOUDY    23  20  88 E12       30.19R WCI  12
HOBBS          FLURRIES  18  16  93 E15       30.22R WCI   3


$$



USA.gov is the U.S. government's official web portal to all federal, state and local government web resources and services.